Tracking 19909 objects as of 22-Oct-2019
HD Live streaming from Space Station
objects crossing your sky now

COSMOS 1275 DEB

Track COSMOS 1275 DEB now!
10-day predictions


NORAD ID: 12663
Int'l Code: 1981-053T
Perigee: 918.8 km
Apogee: 992.7 km
Inclination: 83.0 °
Period: 104.0 minutes
Semi major axis: 7326 km
RCS: 0.0867 m2 (small)
Launch date: June 4, 1981
Source: Commonwealth of Independent States (former USSR) (CIS)
Launch site: PLESETSK MISSILE AND SPACE COMPLEX (PKMTR)

Note: This is SATELLITE DEBRIS
aabbcc
Your satellite tracking list
Your tracking list is empty




NASA's NSSDC Master Catalog

Two Line Element Set (TLE):
1 12663U 81053T   19294.46884352  .00000153  00000-0  12250-3 0  9992
2 12663  82.9566 191.1204 0050387 229.6197 252.8733 13.84313956922829
Source of the keplerian elements: AFSPC